Wind_Speed
28 28 28 29 28 29 30 31 32 31 32 33 34 35 35 35 34 34 34 35 36 37 37 38 39 40 41 42 43 43 43 44 45 45 45 45 46 48 49 49 49 50 50 50
29 29 30 30 30 30 29 30 31 32 32 33 33 34 34 35 35 35 35 36 36 37 37 37 38 38 39 41 42 42 43 43 43 44 44 44 45 46 47 47 48 48 48 48
30 29 30 30 30 30 29 29 30 31 32 32 33 33 33 34 35 35 36 36 37 37 37 37 37 38 39 39 40 41 42 42 42 42 43 43 43 44 44 44 46 46 46 46
31 31 31 31 31 30 29 29 30 31 32 32 33 32 32 34 34 35 36 36 37 37 38 38 39 39 39 39 39 40 41 41 42 41 41 41 42 42 43 43 44 45 45 45
32 32 32 31 31 30 30 29 30 30 32 32 33 32 32 33 34 35 35 36 36 36 37 38 38 39 39 38 39 39 40 41 42 42 42 42 43 43 43 43 43 44 44 45
32 32 32 32 31 31 31 31 31 31 32 33 33 33 33 33 33 34 34 34 34 34 35 36 37 37 38 38 39 39 39 40 41 41 41 42 42 42 42 42 42 42 43 43
32 32 33 32 31 31 30 31 32 32 33 34 34 35 35 35 35 34 34 34 34 35 36 36 37 37 38 38 39 39 39 39 39 39 39 40 41 41 41 41 41 41 41 42
33 33 33 33 32 32 32 32 33 33 34 34 35 35 36 37 37 37 36 36 35 36 36 36 37 37 37 38 38 38 39 39 38 38 38 38 38 39 40 40 41 40 40 40
33 33 33 33 34 34 34 34 35 35 35 36 36 36 36 37 37 37 37 37 37 36 36 36 36 36 36 36 36 37 37 36 37 37 37 37 37 37 38 39 39 39 39 38
33 33 34 34 34 34 35 35 36 36 36 37 37 37 37 37 37 37 36 36 36 35 35 34 35 35 35 35 34 35 35 35 35 35 35 36 37 36 37 37 38 38 38 38
33 33 34 34 35 35 35 36 36 36 37 37 37 37 38 37 37 37 36 35 35 35 34 33 33 33 33 33 34 33 33 33 34 34 35 35 36 37 37 37 37 36 37 38
34 34 34 34 34 34 35 35 36 36 37 37 38 38 37 37 37 37 36 36 35 34 34 33 33 33 32 31 32 32 32 33 33 34 35 35 36 36 37 37 37 36 37 37
33 33 33 33 34 35 35 36 36 36 37 37 37 37 37 37 36 36 36 35 35 34 33 32 32 32 32 32 32 32 32 33 33 33 34 35 35 36 35 36 37 37 37 37
32 32 32 33 33 34 35 35 35 36 36 36 36 36 36 35 35 35 35 34 34 34 33 32 32 31 32 32 32 32 32 32 33 33 33 34 35 35 35 35 35 36 37 36
31 31 31 32 32 33 34 34 34 35 35 35 35 35 34 34 34 34 34 34 33 33 33 32 32 32 32 32 32 32 32 32 33 33 33 33 34 34 34 33 33 34 35 35
30 30 31 31 32 33 34 34 35 35 35 34 34 34 33 33 33 33 33 33 32 32 33 33 33 32 32 32 32 32 32 32 32 32 32 32 32 32 32 32 32 32 33 34
30 31 32 32 33 33 34 34 34 34 35 34 34 34 33 33 33 32 32 33 33 32 32 32 31 31 32 32 32 32 31 31 31 31 31 31 31 31 31 31 31 30 31 31
31 32 32 33 33 34 34 34 34 34 34 34 34 34 34 33 33 33 33 33 33 32 32 31 30 30 30 31 32 31 31 31 31 31 30 30 30 30 30 30 30 30 30 31
32 32 32 33 33 34 34 34 34 34 34 34 34 34 34 33 33 33 33 32 32 31 31 31 30 30 30 30 30 30 31 31 31 31 30 30 30 30 30 31 31 31 31 31
32 32 33 33 34 34 34 34 34 34 34 34 34 34 34 34 33 33 32 31 30 30 30 30 30 29 29 30 29 30 30 31 31 31 30 30 30 30 30 30 30 31 31 31
32 33 34 34 34 34 34 34 34 34 34 34 34 34 33 33 32 31 31 30 29 29 29 29 29 29 29 29 29 29 29 30 30 30 30 30 30 30 30 30 30 30 31 32
33 34 34 35 35 35 35 35 34 34 34 34 34 34 33 33 32 31 30 29 28 28 28 29 29 29 29 28 28 28 29 29 29 29 29 30 30 30 31 31 32 32 32 33
34 34 34 35 35 35 35 35 34 34 34 34 34 33 32 32 31 30 29 29 29 28 28 28 28 29 29 29 29 29 29 29 29 30 30 30 31 32 32 32 33 33 33 33
34 34 35 35 35 35 34 34 34 34 34 34 33 32 31 31 30 30 29 29 28 28 28 29 29 29 29 29 29 29 29 29 30 30 31 31 31 32 32 32 33 33 33 33
34 34 35 35 35 34 34 34 34 34 34 33 32 32 31 30 29 29 28 28 28 28 28 28 29 28 28 28 28 29 29 29 30 30 30 30 31 31 31 32 32 32 32 32
33 33 33 33 33 33 33 33 33 33 33 32 31 31 30 30 29 28 28 27 27 28 28 28 28 27 27 27 27 28 28 28 28 29 29 29 29 29 29 30 30 31 31 31
33 33 33 33 33 33 33 33 33 33 32 32 31 30 30 29 29 28 28 28 28 28 27 27 27 26 26 26 27 27 27 27 27 27 27 27 28 28 28 28 28 29 30 30
Wind_Direction
296 295 294 293 291 289 286 284 284 286 285 284 283 284 283 281 279 279 277 276 275 273 271 268 267 267 266 265 264 263 263 263 263 264 263 263 262 261 260 259 259 259 260 261
296 295 295 294 293 290 288 286 284 284 284 285 286 285 284 281 280 279 278 277 277 275 273 270 269 268 268 267 266 265 264 264 264 264 264 263 263 262 261 260 260 260 261 261
297 296 295 294 295 294 291 288 286 285 285 285 285 285 285 284 281 281 280 279 278 277 275 273 272 270 269 268 268 266 265 265 265 264 263 263 263 263 262 262 261 261 261 261
297 296 295 297 296 295 293 290 288 286 286 285 285 285 285 285 285 284 282 282 280 278 276 275 273 272 271 270 268 267 266 266 266 266 265 263 263 263 263 263 262 261 261 260
298 297 296 297 296 295 293 290 289 289 288 286 285 285 285 286 286 286 285 284 282 279 276 274 272 271 271 270 269 268 267 267 267 267 266 265 264 264 264 263 262 261 261 260
297 298 297 298 296 294 293 290 290 290 289 288 288 286 285 285 286 286 285 283 282 280 278 277 274 272 272 271 269 268 268 268 267 267 267 265 265 264 263 263 262 262 261 260
296 296 296 296 296 294 292 292 291 291 291 290 290 289 288 286 286 287 286 284 282 281 279 278 277 275 273 272 271 270 269 269 267 267 266 265 265 264 263 262 262 262 262 260
295 295 296 295 294 293 293 293 292 291 291 291 291 290 289 289 289 288 287 286 284 283 280 279 278 277 275 273 271 269 268 268 267 266 265 264 263 262 261 260 260 261 261 261
294 294 294 294 293 293 293 293 293 292 291 292 292 292 290 290 289 288 288 287 286 285 283 280 278 276 275 274 272 269 267 266 265 264 263 263 263 262 261 261 260 261 261 262
294 294 293 293 293 292 293 293 294 294 294 293 293 292 290 290 289 289 289 288 287 285 284 282 280 278 276 275 273 271 268 267 265 264 264 264 264 264 263 263 262 262 262 262
293 293 292 292 292 292 293 293 294 294 294 294 294 292 291 290 290 289 289 289 287 285 284 282 281 280 277 276 275 273 271 269 267 266 265 264 263 263 264 264 264 263 263 263
294 294 293 293 292 292 293 293 294 294 294 294 295 294 292 291 290 290 290 290 288 286 283 282 281 280 278 277 276 275 273 271 269 267 267 266 265 265 265 264 263 263 264 264
295 295 294 293 293 292 293 293 294 295 295 295 295 295 293 292 291 291 291 291 290 288 286 284 282 281 279 278 278 277 274 272 270 269 268 267 267 266 265 265 265 264 264 264
296 296 296 296 296 296 296 296 296 297 297 297 297 296 295 293 292 292 292 292 291 290 288 286 285 283 281 279 277 277 276 274 272 271 270 268 267 267 266 265 264 264 264 264
298 298 299 299 300 300 299 299 298 299 299 299 298 297 296 295 294 293 293 293 292 291 289 287 285 283 281 280 279 277 276 275 274 273 271 269 268 268 267 266 265 265 264 264
299 300 301 301 301 301 301 300 300 300 300 299 298 298 297 296 296 294 294 293 293 292 290 287 285 283 281 279 279 278 277 276 275 273 272 271 269 268 267 266 266 266 265 264
300 301 301 301 301 301 300 300 300 301 301 300 299 298 298 297 297 296 294 293 293 293 291 288 285 283 282 280 279 278 277 276 276 275 273 271 269 269 268 267 267 266 265 264
301 301 302 302 301 301 301 301 301 301 301 300 299 298 298 297 297 297 295 294 294 293 291 289 286 284 282 281 280 279 278 277 276 275 274 271 269 267 267 266 266 265 265 265
303 303 303 302 302 303 303 302 302 302 302 302 301 299 298 298 298 298 297 295 293 292 291 289 286 284 283 281 280 279 278 277 276 275 273 271 269 268 266 265 265 265 266 267
303 303 303 303 303 303 303 303 302 302 302 302 301 300 299 299 299 298 297 295 293 292 290 289 287 286 284 283 282 281 280 278 276 274 272 271 269 267 266 266 266 266 267 267
303 303 304 304 304 303 303 303 302 302 303 302 302 301 300 300 299 298 297 296 294 293 292 290 288 287 286 285 284 283 281 280 278 274 272 270 269 267 266 266 267 268 269 269
303 303 304 304 304 304 304 303 303 303 303 303 302 302 301 300 299 298 297 295 294 294 293 291 290 288 287 286 285 283 282 281 279 276 274 271 268 267 267 268 269 269 270 270
305 304 304 305 305 305 305 304 304 304 304 304 304 303 301 300 298 297 296 295 293 293 293 293 291 289 287 287 286 284 282 281 280 278 276 274 271 270 269 270 270 270 270 270
306 305 305 305 305 306 305 305 305 305 305 305 304 303 302 301 300 298 297 296 295 294 294 293 292 291 289 287 286 285 284 282 280 279 278 277 275 273 271 271 271 272 271 271
307 307 306 306 306 306 305 305 305 306 306 305 305 304 304 303 302 300 298 297 296 296 295 295 294 292 290 288 287 286 285 284 282 280 279 277 275 274 273 271 271 271 271 271
310 309 308 307 307 307 306 306 306 307 307 306 305 304 304 303 302 300 299 298 297 297 297 297 296 295 292 290 289 288 287 286 285 283 281 278 276 275 274 272 271 271 271 271
312 311 310 308 308 308 308 308 307 307 307 306 304 304 303 303 302 300 299 298 298 297 297 297 297 297 294 292 290 290 289 288 287 286 283 281 279 277 275 274 272 272 271 271
Height
5541 5539 5537 5534 5533 5530 5528 5525 5524 5523 5521 5519 5518 5516 5515 5514 5513 5512 5511 5510 5509 5509 5508 5508 5508 5508 5508 5508 5509 5509 5509 5510 5511 5511 5512 5512 5513 5514 5515 5516 5518 5519 5520 5521
5535 5532 5529 5527 5525 5523 5520 5518 5516 5515 5513 5511 5509 5507 5506 5504 5503 5502 5501 5500 5499 5498 5497 5497 5496 5496 5496 5496 5496 5497 5497 5498 5498 5498 5499 5499 5500 5500 5501 5502 5504 5505 5506 5508
5527 5525 5522 5520 5518 5515 5513 5510 5509 5506 5506 5503 5501 5499 5497 5495 5493 5492 5491 5489 5488 5487 5486 5485 5485 5484 5484 5484 5484 5484 5484 5485 5485 5486 5486 5486 5487 5487 5488 5489 5490 5492 5493 5494
5519 5518 5514 5515 5510 5507 5505 5503 5500 5498 5496 5494 5493 5491 5488 5485 5484 5482 5480 5479 5477 5476 5475 5474 5473 5473 5472 5472 5472 5472 5472 5472 5472 5473 5473 5474 5474 5475 5476 5477 5477 5479 5480 5481
5512 5509 5506 5505 5502 5499 5497 5495 5493 5490 5488 5486 5484 5482 5479 5476 5474 5472 5470 5468 5467 5465 5464 5463 5462 5461 5461 5460 5460 5459 5459 5460 5460 5460 5461 5461 5461 5462 5463 5464 5465 5466 5467 5468
5504 5501 5498 5498 5494 5491 5489 5487 5485 5482 5480 5477 5475 5473 5472 5468 5465 5463 5460 5458 5456 5454 5453 5451 5450 5449 5449 5448 5448 5447 5447 5447 5447 5447 5448 5448 5449 5449 5450 5451 5452 5453 5454 5455
5497 5493 5490 5489 5486 5483 5482 5480 5476 5473 5471 5468 5466 5463 5461 5458 5455 5453 5450 5448 5445 5444 5442 5440 5439 5438 5437 5436 5436 5435 5435 5435 5435 5435 5435 5436 5436 5437 5437 5439 5440 5441 5442 5443
5489 5486 5485 5480 5477 5476 5473 5469 5466 5464 5461 5459 5456 5453 5450 5448 5445 5442 5440 5437 5435 5433 5431 5429 5427 5426 5426 5425 5424 5423 5423 5423 5423 5423 5423 5423 5424 5424 5425 5426 5427 5428 5429 5430
5482 5480 5475 5471 5469 5466 5463 5461 5457 5455 5452 5449 5446 5443 5440 5437 5435 5432 5429 5427 5424 5422 5420 5418 5416 5415 5414 5414 5412 5412 5412 5411 5411 5411 5411 5412 5412 5413 5413 5414 5415 5416 5417 5418
5472 5470 5466 5463 5460 5457 5454 5451 5448 5445 5442 5439 5436 5433 5430 5427 5424 5421 5419 5416 5414 5412 5410 5408 5406 5404 5403 5402 5401 5401 5400 5400 5400 5400 5400 5400 5401 5401 5402 5403 5403 5404 5405 5406
5463 5461 5457 5454 5451 5448 5445 5442 5439 5436 5432 5429 5425 5422 5419 5416 5413 5411 5408 5405 5403 5401 5399 5397 5395 5394 5392 5391 5390 5390 5389 5389 5389 5389 5389 5389 5389 5390 5391 5391 5392 5393 5393 5394
5455 5452 5449 5446 5442 5439 5436 5433 5430 5426 5422 5418 5415 5411 5408 5405 5403 5400 5397 5395 5392 5390 5388 5386 5384 5383 5381 5380 5379 5379 5379 5378 5378 5378 5378 5378 5378 5379 5379 5380 5380 5381 5381 5382
5446 5442 5439 5436 5433 5430 5427 5423 5420 5416 5412 5409 5405 5401 5398 5395 5392 5389 5387 5384 5381 5379 5377 5375 5374 5372 5371 5370 5369 5368 5368 5367 5367 5367 5367 5366 5366 5367 5368 5368 5368 5369 5370 5370
5437 5434 5431 5428 5424 5421 5417 5414 5410 5406 5402 5398 5395 5391 5388 5385 5382 5379 5376 5373 5371 5368 5366 5365 5363 5361 5360 5359 5358 5358 5357 5356 5356 5355 5355 5355 5355 5355 5356 5357 5357 5357 5358 5358
5429 5426 5422 5419 5415 5412 5408 5404 5401 5397 5393 5389 5385 5381 5378 5375 5372 5369 5366 5363 5361 5358 5356 5354 5352 5351 5349 5348 5348 5347 5346 5345 5345 5344 5344 5344 5344 5344 5344 5345 5345 5346 5346 5347
5421 5417 5414 5411 5407 5403 5399 5395 5391 5387 5383 5379 5375 5372 5368 5365 5362 5359 5356 5353 5351 5348 5346 5343 5342 5340 5339 5338 5337 5336 5335 5334 5334 5333 5333 5333 5333 5333 5333 5333 5334 5334 5335 5336
5413 5410 5406 5402 5398 5394 5390 5386 5382 5378 5374 5370 5366 5362 5359 5356 5352 5349 5346 5343 5340 5338 5335 5333 5331 5329 5328 5327 5326 5325 5325 5324 5323 5322 5322 5322 5322 5322 5322 5323 5323 5324 5324 5324
5405 5401 5397 5393 5390 5386 5381 5377 5373 5369 5365 5361 5357 5353 5349 5346 5343 5339 5336 5333 5330 5328 5325 5323 5321 5319 5317 5316 5315 5315 5314 5313 5313 5312 5311 5311 5311 5312 5312 5312 5313 5313 5314 5314
5396 5392 5388 5384 5380 5376 5372 5368 5364 5360 5356 5351 5347 5343 5340 5336 5333 5329 5326 5323 5320 5318 5315 5312 5310 5308 5307 5305 5304 5304 5303 5302 5301 5301 5301 5301 5301 5301 5301 5302 5302 5303 5303 5303
5388 5384 5380 5375 5371 5367 5363 5359 5354 5350 5346 5342 5338 5334 5330 5326 5323 5319 5316 5313 5310 5307 5305 5302 5300 5298 5296 5295 5294 5293 5292 5291 5290 5290 5290 5290 5290 5290 5291 5291 5292 5292 5292 5292
5379 5375 5371 5367 5362 5358 5354 5349 5345 5341 5337 5333 5329 5325 5321 5317 5313 5310 5306 5304 5301 5298 5295 5293 5291 5288 5287 5285 5284 5282 5281 5280 5279 5279 5279 5279 5279 5279 5280 5280 5281 5281 5281 5281
5370 5366 5362 5357 5353 5349 5344 5340 5336 5332 5327 5323 5319 5315 5311 5307 5304 5300 5297 5294 5292 5289 5286 5284 5281 5279 5277 5276 5274 5273 5271 5270 5269 5269 5268 5268 5268 5269 5269 5269 5269 5270 5270 5270
5361 5357 5352 5348 5344 5339 5335 5330 5326 5322 5318 5313 5309 5305 5301 5298 5294 5291 5289 5285 5283 5280 5277 5275 5272 5270 5268 5266 5265 5263 5261 5260 5259 5258 5258 5257 5257 5257 5257 5258 5258 5258 5258 5258
5352 5347 5343 5339 5334 5330 5326 5321 5317 5313 5308 5304 5300 5296 5292 5288 5285 5281 5279 5276 5273 5271 5268 5266 5263 5261 5258 5257 5255 5253 5252 5250 5249 5248 5247 5247 5246 5246 5246 5246 5246 5246 5246 5246
5343 5338 5334 5329 5325 5321 5316 5312 5308 5303 5299 5295 5291 5286 5283 5279 5276 5273 5270 5267 5264 5262 5259 5257 5254 5251 5249 5247 5245 5244 5242 5240 5239 5238 5237 5236 5235 5235 5234 5234 5234 5234 5234 5234
5333 5329 5324 5320 5316 5312 5307 5303 5299 5295 5290 5286 5282 5278 5274 5271 5267 5264 5262 5259 5256 5253 5251 5248 5245 5242 5240 5238 5236 5234 5232 5231 5229 5228 5226 5225 5224 5224 5223 5223 5223 5223 5223 5223
5325 5320 5316 5311 5307 5303 5298 5294 5290 5286 5281 5277 5274 5270 5266 5262 5259 5256 5253 5250 5247 5245 5242 5239 5237 5234 5231 5229 5227 5225 5223 5221 5220 5218 5217 5215 5214 5214 5213 5213 5212 5212 5212 5212